RH
27 25 32 32 29 27 23 20 18 18 26 28 31 39 50 60 66 66 62 67 80 90 99 100 100 100 100 96 77 88 93 98 94 98 97 97 96 90 80 94 99 96 75 35
30 38 39 38 38 34 29 26 21 24 24 29 25 36 53 62 71 78 73 74 86 98 100 98 100 98 74 80 92 91 89 84 83 95 94 87 80 79 95 94 96 60 28 21
36 39 34 40 34 36 19 22 30 27 23 23 32 43 64 70 71 82 85 82 89 98 99 100 100 74 81 92 95 95 93 82 77 73 76 84 91 96 95 75 58 40 27 23
41 35 34 29 26 34 20 45 36 29 28 18 44 33 51 55 66 84 92 98 97 99 100 99 85 87 94 97 94 90 81 84 84 84 90 94 84 56 32 24 23 21 16 11
51 38 33 27 36 38 30 41 33 37 34 28 29 30 58 52 59 74 97 99 92 85 83 89 96 90 96 91 91 81 70 69 72 68 48 29 23 22 21 17 11 8 6 5
20 31 31 41 34 50 48 45 36 36 30 37 46 36 73 62 72 76 91 100 99 86 83 89 97 95 92 87 73 49 35 29 25 22 22 19 14 10 8 6 6 6 6 6
22 32 38 42 38 37 44 43 37 46 50 55 43 63 91 75 81 84 95 100 94 98 98 97 95 94 73 42 27 22 20 20 18 14 11 9 7 7 8 11 15 17 18 20
24 22 41 53 57 58 46 51 60 74 45 87 54 97 97 80 83 88 94 98 97 99 95 93 73 32 25 20 19 18 16 13 10 9 9 11 14 16 20 23 24 29 42 49
47 31 38 58 66 63 65 72 87 86 55 53 98 93 92 90 77 87 87 86 90 92 92 93 79 76 21 17 17 14 12 12 13 15 17 19 22 24 26 33 46 76 95 96
20 54 45 60 58 65 74 78 85 83 98 94 96 94 99 98 80 76 82 85 87 89 91 92 91 64 18 15 14 13 14 16 19 22 24 26 29 35 59 88 96 96 96 96
62 53 46 52 59 66 77 88 90 93 87 99 90 97 93 97 76 80 87 88 90 84 92 92 91 34 18 14 14 17 21 24 27 28 31 37 67 95 96 96 95 93 97 96
35 58 44 54 76 77 85 91 98 98 98 97 99 97 91 83 80 84 86 83 85 82 90 87 55 20 14 15 20 24 28 30 33 62 93 95 95 95 94 94 98 96 91 76
65 66 50 55 67 84 99 95 97 95 97 99 97 97 86 78 82 82 83 87 86 87 84 72 18 14 17 22 26 28 30 40 54 95 96 96 96 94 81 54 40 44 52 58
80 80 79 74 90 96 98 95 98 94 94 99 96 79 72 74 74 76 81 83 81 78 71 21 16 17 22 25 27 28 49 51 93 96 96 94 68 32 27 28 35 49 58 60
94 79 79 97 97 98 99 100 100 94 96 90 84 77 71 74 74 77 76 76 73 71 39 17 18 20 23 25 27 30 34 65 96 97 94 66 25 25 26 32 41 54 57 62
89 85 88 97 100 96 97 100 99 91 69 65 68 79 72 70 71 73 75 73 70 39 17 18 19 21 23 25 27 31 33 72 97 96 85 33 26 28 31 34 41 57 60 65
83 86 82 94 95 98 92 98 100 92 94 77 74 78 74 71 73 76 66 71 25 16 17 18 20 22 23 25 28 32 33 92 98 94 66 19 25 30 32 34 53 61 63 69
83 92 83 87 94 99 97 97 99 100 81 81 85 84 84 75 75 29 15 16 16 16 16 18 19 20 22 25 29 32 33 96 96 91 32 21 29 31 33 43 58 64 66 74
81 96 98 95 98 99 99 99 96 98 99 76 78 94 86 84 78 78 16 15 15 15 17 18 19 20 22 25 29 32 34 97 98 80 52 66 44 40 38 48 61 66 70 77
74 88 97 98 86 99 98 99 100 100 100 81 66 85 33 77 56 70 15 15 15 15 16 17 18 19 21 25 29 31 38 98 97 92 63 24 44 29 35 46 62 68 74 81
90 99 96 98 96 99 99 89 91 100 93 77 60 81 34 46 22 15 15 15 15 15 16 16 17 18 21 25 29 30 45 97 96 95 81 40 33 30 35 44 60 67 76 82
100 97 97 97 99 98 97 97 99 81 77 66 56 43 23 20 19 15 14 14 14 14 15 15 16 18 20 24 28 30 37 99 97 95 75 63 32 32 33 38 54 64 72 81
98 95 96 100 99 96 92 83 83 74 66 60 49 32 23 20 19 16 14 14 14 14 14 15 16 17 19 23 27 30 30 84 98 97 97 99 45 25 26 30 43 57 65 76
99 90 94 98 98 98 98 87 76 74 68 59 42 29 20 19 19 17 15 14 13 14 14 15 16 17 18 22 26 30 30 50 98 97 97 96 42 24 23 19 30 45 55 66
95 93 91 96 97 87 80 78 74 77 72 62 46 27 20 18 21 18 16 16 16 16 16 17 17 17 18 20 24 29 30 33 98 98 97 97 70 31 21 14 19 27 43 53
96 92 84 95 89 89 87 72 56 58 70 61 46 28 20 16 17 18 18 18 18 18 18 18 18 18 19 20 23 27 30 30 93 99 99 97 95 93 46 17 16 20 28 37
Wind_Speed
3 3 3 6 7 8 10 11 12 10 8 9 5 3 6 10 11 11 8 2 2 6 14 16 15 15 16 23 15 16 21 17 17 22 28 30 32 34 38 40 43 48 52 50
0 1 5 6 8 10 12 13 14 11 5 11 6 4 2 8 12 13 9 5 4 11 12 12 11 15 18 15 15 10 13 18 23 26 30 33 35 38 41 44 48 50 49 46
2 2 5 6 9 13 12 14 11 14 15 13 7 6 6 10 14 13 12 10 7 6 10 9 9 15 16 16 14 16 23 20 23 25 30 36 40 43 46 46 43 44 47 49
1 5 6 8 7 12 13 6 13 15 13 16 6 5 3 11 16 13 11 9 8 6 7 7 11 16 24 19 18 21 22 22 27 31 35 38 43 46 47 48 48 49 47 46
2 5 8 5 11 12 12 18 17 15 14 14 10 8 8 9 12 13 9 8 1 1 6 13 16 17 17 18 22 26 28 29 33 37 40 43 45 45 46 47 46 44 44 44
4 4 6 12 16 10 12 18 16 12 13 12 5 2 10 11 9 7 8 8 6 2 6 8 13 14 16 21 27 29 30 32 34 38 41 42 43 42 42 42 42 41 41 41
2 7 6 16 13 8 16 15 13 5 5 5 2 10 9 6 9 7 7 6 6 6 4 5 10 13 21 26 28 30 32 33 35 36 37 38 38 39 40 40 41 42 42 43
5 4 13 14 12 15 10 13 6 4 5 1 10 5 5 9 9 9 8 8 8 8 9 10 14 19 22 26 28 30 31 31 31 32 33 35 37 39 42 44 45 47 50 52
6 1 9 11 9 14 10 13 6 5 6 1 7 13 11 6 8 8 8 7 7 9 11 13 16 19 24 27 28 28 29 30 33 35 37 39 42 45 46 49 53 57 55 51
4 2 8 8 7 10 10 10 6 6 4 2 11 11 12 12 9 7 7 7 9 11 13 15 17 21 25 26 27 28 30 32 34 36 39 41 44 48 53 56 50 43 32 26
2 3 5 4 8 10 7 8 5 2 3 3 3 5 11 13 9 6 7 8 10 12 15 17 19 22 24 27 29 31 33 35 38 42 45 49 53 55 45 33 22 23 26 26
1 3 5 6 7 6 8 8 7 5 5 6 3 6 10 9 7 7 8 10 13 15 16 18 20 23 27 29 31 32 35 38 42 47 52 54 44 32 20 22 24 22 22 24
3 0 2 4 1 6 7 7 6 9 7 12 5 6 14 8 9 9 10 11 13 16 17 18 23 26 29 30 33 36 40 44 47 54 49 35 23 21 20 21 23 24 24 24
12 4 5 10 6 3 7 8 8 10 14 15 16 12 8 9 9 9 11 13 15 16 18 22 25 29 30 32 36 37 41 46 54 51 33 24 22 21 22 23 24 24 23 23
9 5 8 10 7 13 15 18 15 14 9 8 9 11 9 9 10 11 13 15 15 16 19 24 27 29 32 34 36 40 43 51 54 34 25 24 20 21 24 24 26 24 24 25
6 6 10 15 15 14 19 15 14 17 14 12 8 11 9 9 9 12 13 14 15 18 22 25 28 31 33 37 40 42 45 53 45 28 29 23 20 22 24 26 29 28 27 25
3 10 14 10 10 3 10 17 15 14 12 11 11 9 8 9 11 11 13 14 16 19 23 26 29 33 36 38 39 43 48 54 38 26 29 23 22 24 26 28 28 27 26 23
3 9 9 9 7 2 7 13 17 15 13 11 8 9 9 8 7 16 14 15 18 20 23 27 31 34 36 38 40 44 49 52 32 26 26 26 24 24 27 29 29 28 26 21
1 7 5 7 6 13 10 6 8 12 12 9 9 10 9 8 4 15 16 15 17 20 24 28 32 35 36 38 41 45 49 49 27 27 25 27 26 29 31 30 30 28 26 22
2 5 0 7 6 3 9 11 11 11 7 7 5 9 4 10 6 10 13 15 18 21 24 28 31 35 36 38 42 46 50 49 27 28 28 28 30 33 33 32 31 29 27 25
3 5 6 7 7 7 13 10 6 4 2 4 5 8 7 7 6 9 13 16 18 21 24 27 31 34 36 38 41 45 51 52 30 28 27 28 29 34 35 34 32 28 29 27
7 4 5 8 6 6 9 10 5 5 4 6 6 6 6 5 7 10 14 16 19 21 24 27 30 33 35 37 40 44 49 53 32 32 33 31 31 32 35 36 33 31 32 31
7 10 7 6 5 13 11 12 10 6 5 6 7 6 6 6 8 11 13 16 18 21 24 27 29 31 33 36 39 42 47 50 40 27 32 35 31 33 35 37 36 36 35 34
12 15 16 14 15 15 13 10 8 6 4 5 7 7 6 7 9 11 13 16 18 20 23 25 27 30 32 34 37 40 43 47 45 31 28 35 32 30 35 40 39 39 38 38
15 21 20 16 15 15 12 8 4 2 2 4 6 7 7 7 8 11 13 16 18 20 22 24 27 29 31 33 35 38 41 46 48 38 28 31 35 32 34 40 41 40 41 40
19 18 17 16 13 12 9 6 3 3 2 4 5 7 7 7 8 11 13 15 17 19 21 23 25 27 30 32 34 36 39 44 48 45 36 28 31 35 35 36 39 41 40 41
Wind_Direction
266 261 330 315 316 310 308 297 294 285 305 326 269 276 329 357 9 11 3 360 220 176 173 187 178 183 183 211 219 239 256 268 274 283 282 288 291 293 292 294 297 298 298 297
284 172 305 304 318 314 301 293 292 300 288 314 253 267 14 16 21 25 27 43 113 148 178 177 179 206 215 222 239 317 316 297 288 285 289 288 286 284 286 289 289 289 290 293
41 356 315 319 307 316 306 289 297 298 294 280 245 141 41 52 37 31 45 54 87 136 187 179 195 227 234 239 305 303 316 304 297 294 291 285 286 288 288 291 289 290 292 294
51 341 338 314 310 320 313 322 306 302 291 287 210 149 83 48 40 35 42 67 89 123 137 184 234 256 260 298 308 314 315 305 300 294 290 289 289 291 293 294 293 292 292 292
298 345 357 333 317 317 289 313 299 285 275 262 242 248 71 56 37 29 33 49 30 282 248 263 275 280 304 308 307 312 310 305 300 297 296 298 298 296 295 295 296 296 294 294
49 9 13 351 338 308 316 317 291 269 246 227 251 278 31 28 30 29 31 48 57 327 301 293 288 308 309 305 308 307 307 304 302 300 301 301 300 300 300 300 298 297 296 296
330 42 351 3 351 329 330 331 307 225 204 228 166 70 62 29 34 39 45 43 29 41 34 352 325 315 310 310 309 311 310 308 308 305 304 305 306 305 304 304 302 298 294 291
357 236 2 357 10 341 349 345 1 292 333 30 86 81 61 35 44 49 48 46 29 14 359 341 324 318 313 313 315 316 316 315 315 314 314 312 309 306 305 303 300 298 295 290
9 62 5 356 22 19 354 8 347 310 310 333 81 92 69 87 42 49 53 31 11 354 348 339 331 325 330 327 328 328 331 330 327 324 321 318 316 312 308 305 301 299 295 292
28 25 9 28 45 19 32 2 22 353 330 147 119 68 27 21 47 39 28 14 360 350 340 339 336 333 337 338 341 341 337 333 327 323 320 316 311 307 303 303 305 302 304 303
59 22 16 37 28 23 23 21 46 8 20 331 98 60 34 45 37 27 20 9 354 349 346 343 339 341 344 349 348 344 339 334 331 326 322 316 309 311 314 315 322 312 303 301
31 82 75 79 54 46 5 36 32 24 9 4 33 63 55 27 41 32 19 3 357 356 346 347 344 347 358 355 349 344 341 337 333 326 318 321 322 327 338 326 322 318 312 308
121 302 222 190 199 2 10 24 65 66 68 28 20 63 55 34 34 31 18 8 359 354 349 347 354 0 359 355 351 349 346 339 330 325 335 336 344 348 343 345 336 327 321 317
91 77 51 57 69 6 46 57 91 93 88 76 70 73 55 37 31 22 14 7 358 355 352 354 1 1 0 356 354 352 343 338 337 342 349 356 357 2 359 351 343 335 329 322
123 121 105 95 64 90 77 78 78 91 87 89 94 64 39 32 25 16 6 1 357 355 355 1 0 1 2 356 354 350 347 346 345 355 359 1 5 3 357 354 352 346 341 335
136 169 133 96 104 94 83 71 76 87 76 88 81 51 36 28 18 13 3 0 359 357 1 1 0 2 1 358 358 352 350 348 360 6 2 5 3 1 357 360 0 356 351 346
151 164 160 150 154 107 60 70 60 77 90 85 49 30 25 15 14 9 9 3 359 1 3 1 360 4 3 0 356 352 357 353 8 11 8 10 6 0 4 7 7 4 3 4
150 192 188 171 186 130 130 101 93 66 65 67 55 22 14 8 15 10 357 358 3 3 5 1 1 4 5 359 357 360 360 3 12 15 17 14 12 13 14 17 16 14 15 22
14 186 174 190 108 121 133 147 115 109 45 48 39 24 25 17 32 349 341 0 2 3 6 2 1 3 5 2 2 5 3 9 17 20 25 21 24 24 24 24 23 22 25 34
43 199 109 190 140 113 152 156 109 81 71 19 45 22 61 26 111 328 343 356 1 4 5 2 3 5 6 6 6 8 7 11 21 25 27 32 31 34 30 29 28 28 33 40
90 67 74 68 97 95 145 149 92 340 356 16 55 21 34 30 14 353 349 356 1 4 5 5 6 6 8 10 11 12 12 16 30 28 25 30 32 40 37 36 33 37 42 44
45 27 45 45 92 93 150 156 164 139 75 67 49 35 36 27 7 359 356 357 360 5 5 7 8 10 11 13 15 16 16 19 28 32 33 32 37 42 43 42 41 42 49 49
41 80 74 85 107 116 136 131 130 116 75 54 37 31 18 13 7 4 360 356 2 5 7 8 10 13 15 17 19 20 20 20 23 31 36 29 35 45 49 49 49 48 53 57
67 99 96 88 98 108 116 123 110 91 67 45 34 18 10 4 4 4 3 359 0 5 8 9 13 17 20 22 22 24 22 23 22 34 37 35 42 50 52 53 53 55 56 61
94 107 100 91 97 96 87 89 107 130 79 33 22 14 8 3 1 359 360 359 1 3 9 11 16 20 25 26 27 28 26 26 25 36 44 43 47 54 55 56 57 57 61 63
109 110 104 101 90 80 69 66 70 90 95 33 16 6 1 1 359 0 358 2 3 5 12 15 19 23 28 30 31 32 30 31 33 37 43 51 49 53 54 56 62 62 65 70